Location: Janeiro
(34.9957°N, 76.7652°W)
Time: 21:27:36
(UTC+00:00)

Cosmos 2026 Rocket - Pass Details

Date: 14 December 2019
Orbit: 940 x 1000 km, 82.9° (Epoch: 29 January)

Event Time Altitude Azimuth Distance (km) Brightness Sun altitude
Rises 22:53:30 0° 190° (S) 3,594 7.4 -11.5°
Reaches altitude 10° 22:55:59 10° 192° (SSW) 2,649 6.7 -12.0°
Maximum altitude 23:02:00 73° 277° (W) 981 4.2 -13.1°
Drops below altitude 10° 23:08:04 10° 2° (N) 2,665 6.1 -14.3°
Sets 23:10:35 0° 4° (N) 3,617 6.8 -14.8°
